TimeCDT,TemperatureF,Dew PointF,Humidity,Sea Level PressureIn,VisibilityMPH,Wind Direction,Wind SpeedMPH,Gust SpeedMPH,PrecipitationIn,Events,Conditions,WindDirDegrees,DateUTC
12:56 AM,64.0,57.9,80,30.05,10.0,SSW,8.1,-,N/A,,Overcast,200,2013-07-30 05:56:00
1:27 AM,62.6,59.0,88,30.06,10.0,South,5.8,-,N/A,,Overcast,190,2013-07-30 06:27:00
1:44 AM,62.6,60.8,94,30.06,10.0,Calm,Calm,-,N/A,,Overcast,0,2013-07-30 06:44:00
1:56 AM,62.1,60.1,93,30.06,10.0,SSW,3.5,-,N/A,,Overcast,210,2013-07-30 06:56:00
2:30 AM,62.6,60.8,94,30.06,10.0,Calm,Calm,-,N/A,,Overcast,0,2013-07-30 07:30:00
2:48 AM,62.6,60.8,94,30.07,10.0,SSW,3.5,-,N/A,,Overcast,210,2013-07-30 07:48:00
2:56 AM,63.0,60.1,90,30.06,10.0,Calm,Calm,-,N/A,,Overcast,0,2013-07-30 07:56:00
3:56 AM,63.0,61.0,93,30.05,10.0,SSW,4.6,-,N/A,,Overcast,200,2013-07-30 08:56:00
4:56 AM,63.0,61.0,93,30.06,10.0,SSW,3.5,-,N/A,,Overcast,210,2013-07-30 09:56:00
5:56 AM,63.0,61.0,93,30.07,8.0,Calm,Calm,-,N/A,,Overcast,0,2013-07-30 10:56:00
6:30 AM,62.6,60.8,94,30.09,2.5,Calm,Calm,-,0.00,,Light Drizzle,0,2013-07-30 11:30:00
6:56 AM,63.0,61.0,93,30.09,3.0,Calm,Calm,-,0.00,,Light Drizzle,0,2013-07-30 11:56:00
7:10 AM,62.6,60.8,94,30.09,5.0,Calm,Calm,-,0.00,,Overcast,0,2013-07-30 12:10:00
7:56 AM,64.0,62.1,93,30.09,6.0,Calm,Calm,-,0.00,,Overcast,0,2013-07-30 12:56:00
8:56 AM,64.9,62.1,90,30.09,10.0,Calm,Calm,-,N/A,,Overcast,0,2013-07-30 13:56:00
9:46 AM,66.2,62.6,88,30.10,10.0,Calm,Calm,-,N/A,,Overcast,0,2013-07-30 14:46:00
9:56 AM,68.0,62.1,81,30.09,10.0,Calm,Calm,-,N/A,,Overcast,0,2013-07-30 14:56:00
10:29 AM,69.8,62.6,78,30.09,10.0,Calm,Calm,-,N/A,,Mostly Cloudy,0,2013-07-30 15:29:00
10:56 AM,72.0,63.0,73,30.09,10.0,Calm,Calm,-,N/A,,Mostly Cloudy,0,2013-07-30 15:56:00
11:56 AM,73.0,62.1,68,30.08,10.0,ENE,3.5,-,N/A,,Overcast,70,2013-07-30 16:56:00
12:56 PM,73.0,63.0,71,30.08,10.0,NNE,4.6,-,N/A,,Overcast,20,2013-07-30 17:56:00
1:56 PM,75.9,64.0,67,30.08,10.0,NNE,4.6,-,N/A,,Mostly Cloudy,30,2013-07-30 18:56:00
2:56 PM,77.0,62.1,60,30.06,10.0,Calm,Calm,-,N/A,,Mostly Cloudy,0,2013-07-30 19:56:00
3:56 PM,78.1,64.0,62,30.06,10.0,ENE,5.8,-,N/A,,Mostly Cloudy,70,2013-07-30 20:56:00
4:56 PM,77.0,64.0,64,30.06,10.0,North,5.8,-,N/A,,Mostly Cloudy,10,2013-07-30 21:56:00
5:56 PM,73.9,64.0,71,30.07,10.0,NNE,10.4,-,N/A,,Mostly Cloudy,20,2013-07-30 22:56:00
6:56 PM,73.9,62.1,66,30.09,10.0,NNE,8.1,-,N/A,,Overcast,30,2013-07-30 23:56:00
7:56 PM,71.1,62.1,73,30.09,10.0,East,5.8,-,N/A,,Overcast,80,2013-07-31 00:56:00
8:56 PM,70.0,62.1,76,30.09,10.0,NE,4.6,-,N/A,,Overcast,50,2013-07-31 01:56:00
9:56 PM,69.1,61.0,75,30.07,10.0,SSE,5.8,-,N/A,,Mostly Cloudy,150,2013-07-31 02:56:00
10:56 PM,66.9,61.0,81,30.07,10.0,South,5.8,-,N/A,,Scattered Clouds,190,2013-07-31 03:56:00
11:56 PM,66.0,61.0,84,30.08,10.0,South,4.6,-,N/A,,Partly Cloudy,190,2013-07-31 04:56:00